Flag for Portugal Weather past 2 weeks in Coimbra, Portugal

Now
64 °F

Passing clouds.


Feels Like: 64 °F
Forecast: 60 / 79 °F
Wind: 3 mph from West

Location: Porto / Pedras Rubras

Current Time: Jul 23, 2014 at 6:34:40 AM

Latest Report: Jul 23, 2014 at 6:00 AM


Visibility: 5 mi

Pressure: 29.95 "Hg

Humidity: 94%

Dew point: 63 °F

Location of CoimbraLocation

Historic Weather in Coimbra — Graph

°F

Coimbra temperature yesterday

Maximum temperature yesterday: 75 °F (at 10:30 AM)
Minimum temperature yesterday: 59 °F (at 4:30 AM)
Average temperature yesterday: 66 °F

Past Weeks' High & Low Weather Summary

 TemperatureHumidityPressure
High82 °F (Jul 9, 2:00 PM)100% (Jul 14, 1:30 AM)30.21 "Hg (Jul 14, 1:30 AM)
Low54 °F (Jul 12, 6:30 AM)28% (Jul 11, 1:00 PM)29.83 "Hg (Jul 19, 3:00 AM)
Average67 °F78%30.04 "Hg
* Reported Jul 8 5:00 AM — Jul 23 5:00 AM, Coimbra, Weather by CustomWeather, © 2014

Note: Actual official high and low records may vary slightly from our data, if they occured in-between our weather recording intervals... More about our weather records

Advertising

Coimbra weather history for previous 24 hours

 ConditionsComfort  
Time TempWeatherWind HumidityBarometerVisibility
5:00 AM
Jul 23
64 °FPassing clouds.1 mph94%29.95 "Hg5 mi
4:00 AM64 °FPassing clouds.2 mph94%29.95 "Hg4 mi
3:30 AM64 °FPassing clouds.2 mph94%29.95 "Hg4 mi
3:00 AM64 °FPassing clouds.3 mph94%29.95 "Hg4 mi
2:30 AM64 °FPassing clouds.3 mph94%29.95 "Hg4 mi
2:00 AM64 °FPassing clouds.5 mph94%29.98 "Hg4 mi
1:30 AM64 °FPassing clouds.2 mph94%29.98 "Hg4 mi
12:30 AM64 °FPassing clouds.2 mph94%29.98 "Hg5 mi
12:00 AM64 °FPartly cloudy.2 mph94%29.98 "Hg5 mi
6:00 PM
Jul 22
70 °FSunny.7 mph73%29.98 "Hg10 mi
5:30 PM72 °FPassing clouds.7 mph73%29.98 "HgN/A
5:00 PM73 °FSunny.7 mph74%29.98 "Hg10 mi
4:30 PM73 °FPassing clouds.7 mph69%29.98 "HgN/A
4:00 PM75 °FPassing clouds.7 mph65%29.98 "HgN/A
3:30 PM72 °FPassing clouds.6 mph73%30.01 "HgN/A
3:00 PM70 °FPassing clouds.7 mph78%30.01 "HgN/A
2:30 PM73 °FPassing clouds.6 mph69%30.01 "HgN/A
2:00 PM73 °FPassing clouds.7 mph69%30.01 "HgN/A
1:30 PM72 °FPassing clouds.7 mph73%30.01 "HgN/A
1:00 PM70 °FFog.6 mph78%30.01 "HgN/A
12:30 PM68 °FFog.6 mph83%30.01 "HgN/A
12:00 PM66 °FPassing clouds.7 mph88%30.01 "HgN/A
11:30 AM70 °FPassing clouds.8 mph78%30.01 "HgN/A
11:00 AM70 °FPassing clouds.7 mph78%30.01 "HgN/A
10:30 AM75 °FPassing clouds.5 mph74%30.01 "HgN/A
10:00 AM73 °FSunny.2 mph74%30.01 "Hg10 mi
9:48 AM73 °FSunny.2 mph69%30.01 "Hg10 mi
9:30 AM70 °FSunny.2 mph78%30.04 "Hg10 mi
9:00 AM70 °FSunny.2 mph78%30.04 "Hg10 mi
8:30 AM66 °FSunny.2 mph83%30.04 "Hg10 mi
8:00 AM63 °FSunny.3 mph88%30.04 "Hg10 mi
7:30 AM61 °FPassing clouds.3 mph94%30.04 "HgN/A
7:00 AM59 °FClear.2 mph94%30.04 "Hg10 mi
6:30 AM59 °FClear.2 mph94%30.04 "Hg10 mi
6:00 AM59 °FClear.5 mph94%30.01 "Hg10 mi
Weather by CustomWeather, © 2014

See weather overviewHow to use our weather pages